Time,TemperatureF,DewpointF,PressureIn,WindDirection,WindDirectionDegrees,WindSpeedMPH,WindSpeedGustMPH,Humidity,HourlyPrecipIn,Conditions,Clouds,dailyrainin,SoftwareType,DateUTC
2013-02-09 00:00:00,36.2,26.3,29.61,WNW,293,3.8,11.2,67,0.00,,,0.44,WUHU216HW,2013-02-09 05:00:00,
2013-02-09 00:01:00,36.0,25.8,29.61,North,0,6.3,11.2,66,0.00,,,0.00,WUHU216HW,2013-02-09 05:01:00,
2013-02-09 00:06:00,36.0,26.1,29.62,NW,315,1.8,11.2,67,0.00,,,0.00,WUHU216HW,2013-02-09 05:06:00,
2013-02-09 00:11:00,35.8,25.9,29.62,NW,315,1.8,9.6,67,0.00,,,0.00,WUHU216HW,2013-02-09 05:11:00,
2013-02-09 00:16:00,35.6,25.7,29.62,SSW,203,7.6,7.6,67,0.00,,,0.00,WUHU216HW,2013-02-09 05:16:00,
2013-02-09 00:21:00,35.5,25.6,29.62,South,180,5.1,9.6,67,0.00,,,0.00,WUHU216HW,2013-02-09 05:21:00,
2013-02-09 00:26:00,35.5,25.6,29.62,WNW,293,6.5,9.6,67,0.00,,,0.00,WUHU216HW,2013-02-09 05:26:00,
2013-02-09 00:31:00,35.3,25.4,29.63,WNW,293,6.0,8.7,67,0.00,,,0.00,WUHU216HW,2013-02-09 05:31:00,
2013-02-09 00:37:00,35.1,24.8,29.63,West,270,2.2,8.9,66,0.00,,,0.00,WUHU216HW,2013-02-09 05:37:00,
2013-02-09 00:42:00,34.9,25.0,29.63,WNW,293,4.7,8.9,67,0.00,,,0.00,WUHU216HW,2013-02-09 05:42:00,
2013-02-09 00:47:00,34.9,24.7,29.63,West,270,11.4,11.4,66,0.00,,,0.00,WUHU216HW,2013-02-09 05:47:00,
2013-02-09 00:52:00,34.7,24.8,29.64,South,180,4.5,11.4,67,0.00,,,0.00,WUHU216HW,2013-02-09 05:52:00,
2013-02-09 00:57:00,34.6,24.7,29.63,NW,315,4.3,6.9,67,0.00,,,0.00,WUHU216HW,2013-02-09 05:57:00,
2013-02-09 01:02:00,34.6,24.3,29.63,NW,315,6.3,9.8,66,0.00,,,0.00,WUHU216HW,2013-02-09 06:02:00,
2013-02-09 01:07:00,34.6,24.3,29.63,WNW,293,4.7,9.8,66,0.00,,,0.00,WUHU216HW,2013-02-09 06:07:00,
2013-02-09 01:12:00,34.4,24.1,29.63,ESE,113,2.5,4.9,66,0.00,,,0.00,WUHU216HW,2013-02-09 06:12:00,
2013-02-09 01:17:00,34.2,23.9,29.64,WNW,293,6.9,6.9,66,0.00,,,0.00,WUHU216HW,2013-02-09 06:17:00,
2013-02-09 01:22:00,34.2,23.9,29.64,West,270,4.7,6.9,66,0.00,,,0.00,WUHU216HW,2013-02-09 06:22:00,
2013-02-09 01:27:00,34.0,23.8,29.64,WNW,293,5.6,11.0,66,0.00,,,0.00,WUHU216HW,2013-02-09 06:27:00,
2013-02-09 01:32:00,34.0,24.1,29.64,SW,225,2.2,11.0,67,0.00,,,0.00,WUHU216HW,2013-02-09 06:32:00,
2013-02-09 01:37:00,33.8,23.9,29.65,ENE,68,0.4,6.3,67,0.00,,,0.00,WUHU216HW,2013-02-09 06:37:00,
2013-02-09 01:42:00,33.8,23.9,29.65,East,90,7.8,7.8,67,0.00,,,0.00,WUHU216HW,2013-02-09 06:42:00,
2013-02-09 01:47:00,33.7,23.8,29.66,NNW,338,10.1,10.1,67,0.00,,,0.00,WUHU216HW,2013-02-09 06:47:00,
2013-02-09 01:52:00,33.7,23.4,29.66,NNW,338,0.7,11.2,66,0.00,,,0.00,WUHU216HW,2013-02-09 06:52:00,
2013-02-09 01:57:00,33.7,23.4,29.66,SSW,203,5.4,11.2,66,0.00,,,0.00,WUHU216HW,2013-02-09 06:57:00,
2013-02-09 02:02:00,33.5,23.2,29.67,WSW,248,5.8,6.3,66,0.00,,,0.00,WUHU216HW,2013-02-09 07:02:00,
2013-02-09 02:07:00,33.5,23.2,29.67,NW,315,4.3,8.5,66,0.00,,,0.00,WUHU216HW,2013-02-09 07:07:00,
2013-02-09 02:12:00,33.3,23.5,29.67,North,0,0.7,8.5,67,0.00,,,0.00,WUHU216HW,2013-02-09 07:12:00,
2013-02-09 02:17:00,33.3,23.5,29.68,NNE,23,2.5,7.8,67,0.00,,,0.00,WUHU216HW,2013-02-09 07:17:00,
2013-02-09 02:22:00,33.1,23.3,29.68,North,0,5.6,8.5,67,0.00,,,0.00,WUHU216HW,2013-02-09 07:22:00,
2013-02-09 02:27:00,32.9,22.8,29.68,WNW,293,10.5,10.5,66,0.00,,,0.00,WUHU216HW,2013-02-09 07:27:00,
2013-02-09 02:32:00,32.8,22.2,29.68,NW,315,4.9,10.5,65,0.00,,,0.00,WUHU216HW,2013-02-09 07:32:00,
2013-02-09 02:37:00,32.8,21.9,29.69,WNW,293,7.8,10.1,64,0.00,,,0.00,WUHU216HW,2013-02-09 07:37:00,
2013-02-09 02:42:00,32.6,21.7,29.69,NW,315,4.5,10.1,64,0.00,,,0.00,WUHU216HW,2013-02-09 07:42:00,
2013-02-09 02:47:00,32.4,21.6,29.69,West,270,1.8,10.1,64,0.00,,,0.00,WUHU216HW,2013-02-09 07:47:00,
2013-02-09 02:52:00,32.4,21.6,29.69,WNW,293,3.1,9.8,64,0.00,,,0.00,WUHU216HW,2013-02-09 07:52:00,
2013-02-09 02:57:00,32.0,21.6,29.69,NNW,338,6.3,9.8,65,0.00,,,0.00,WUHU216HW,2013-02-09 07:57:00,
2013-02-09 03:02:00,32.0,21.6,29.69,NW,315,4.0,6.3,65,0.00,,,0.00,WUHU216HW,2013-02-09 08:02:00,
2013-02-09 03:07:00,32.0,21.6,29.69,SW,225,5.4,7.6,65,0.00,,,0.00,WUHU216HW,2013-02-09 08:07:00,
2013-02-09 03:12:00,32.0,21.2,29.69,NNW,338,1.3,7.6,64,0.00,,,0.00,WUHU216HW,2013-02-09 08:12:00,
2013-02-09 03:17:00,31.9,21.4,29.70,SW,225,4.7,6.9,65,0.00,,,0.00,WUHU216HW,2013-02-09 08:17:00,
2013-02-09 03:22:00,31.9,21.1,29.70,WNW,293,6.9,6.9,64,0.00,,,0.00,WUHU216HW,2013-02-09 08:22:00,
2013-02-09 03:27:00,31.7,20.9,29.70,SSW,203,8.1,8.1,64,0.00,,,0.00,WUHU216HW,2013-02-09 08:27:00,
2013-02-09 03:32:00,31.7,20.9,29.70,NW,315,5.1,8.1,64,0.00,,,0.00,WUHU216HW,2013-02-09 08:32:00,
2013-02-09 03:37:00,31.7,20.9,29.71,WSW,248,5.4,6.5,64,0.00,,,0.00,WUHU216HW,2013-02-09 08:37:00,
2013-02-09 03:42:00,31.7,20.9,29.71,North,0,2.0,6.5,64,0.00,,,0.00,WUHU216HW,2013-02-09 08:42:00,
2013-02-09 03:47:00,31.7,20.5,29.72,North,0,4.5,8.5,63,0.00,,,0.00,WUHU216HW,2013-02-09 08:47:00,
2013-02-09 03:52:00,31.7,20.9,29.71,SSW,203,2.5,9.4,64,0.00,,,0.00,WUHU216HW,2013-02-09 08:52:00,
2013-02-09 03:57:00,31.5,20.3,29.71,WNW,293,3.4,9.4,63,0.00,,,0.00,WUHU216HW,2013-02-09 08:57:00,
2013-02-09 04:02:00,31.5,20.3,29.72,NNW,338,2.5,8.3,63,0.00,,,0.00,WUHU216HW,2013-02-09 09:02:00,
2013-02-09 04:07:00,31.3,20.2,29.72,North,0,3.8,9.2,63,0.00,,,0.00,WUHU216HW,2013-02-09 09:07:00,
2013-02-09 04:12:00,31.3,20.2,29.72,SW,225,6.3,9.2,63,0.00,,,0.00,WUHU216HW,2013-02-09 09:12:00,
2013-02-09 04:17:00,31.3,20.2,29.73,NNW,338,4.0,8.3,63,0.00,,,0.00,WUHU216HW,2013-02-09 09:17:00,
2013-02-09 04:22:00,31.3,20.5,29.73,NW,315,4.5,4.9,64,0.00,,,0.00,WUHU216HW,2013-02-09 09:22:00,
2013-02-09 04:27:00,31.1,20.3,29.75,NE,45,3.1,6.0,64,0.00,,,0.00,WUHU216HW,2013-02-09 09:27:00,
2013-02-09 04:32:00,31.3,20.5,29.75,NNE,23,1.8,12.5,64,0.00,,,0.00,WUHU216HW,2013-02-09 09:32:00,
2013-02-09 04:38:00,31.3,20.5,29.75,East,90,6.5,12.5,64,0.00,,,0.00,WUHU216HW,2013-02-09 09:38:00,
2013-02-09 04:43:00,31.1,20.3,29.75,NW,315,8.9,9.6,64,0.00,,,0.00,WUHU216HW,2013-02-09 09:43:00,
2013-02-09 04:48:00,31.1,20.3,29.75,NW,315,1.6,8.9,64,0.00,,,0.00,WUHU216HW,2013-02-09 09:48:00,
2013-02-09 04:53:00,31.1,20.3,29.75,WNW,293,9.4,9.4,64,0.00,,,0.00,WUHU216HW,2013-02-09 09:53:00,
2013-02-09 04:58:00,31.0,19.8,29.75,NNW,338,4.3,9.4,63,0.00,,,0.00,WUHU216HW,2013-02-09 09:58:00,
2013-02-09 05:03:00,31.0,20.2,29.76,West,270,4.3,7.8,64,0.00,,,0.00,WUHU216HW,2013-02-09 10:03:00,
2013-02-09 05:08:00,30.8,20.0,29.76,NW,315,6.9,7.4,64,0.00,,,0.00,WUHU216HW,2013-02-09 10:08:00,
2013-02-09 05:13:00,31.0,19.8,29.77,North,0,3.4,6.9,63,0.00,,,0.00,WUHU216HW,2013-02-09 10:13:00,
2013-02-09 05:18:00,30.8,20.0,29.77,North,0,2.2,6.3,64,0.00,,,0.00,WUHU216HW,2013-02-09 10:18:00,
2013-02-09 05:23:00,30.8,19.6,29.77,NW,315,2.7,8.9,63,0.00,,,0.00,WUHU216HW,2013-02-09 10:23:00,
2013-02-09 05:28:00,30.8,19.6,29.77,NW,315,4.5,8.9,63,0.00,,,0.00,WUHU216HW,2013-02-09 10:28:00,
2013-02-09 05:33:00,30.6,19.4,29.77,WNW,293,4.0,8.1,63,0.00,,,0.00,WUHU216HW,2013-02-09 10:33:00,
2013-02-09 05:38:00,30.6,19.4,29.78,NNW,338,9.4,9.4,63,0.00,,,0.00,WUHU216HW,2013-02-09 10:38:00,
2013-02-09 05:43:00,30.6,19.4,29.78,West,270,3.8,9.4,63,0.00,,,0.00,WUHU216HW,2013-02-09 10:43:00,
2013-02-09 05:48:00,30.4,19.3,29.78,NNE,23,4.3,6.3,63,0.00,,,0.00,WUHU216HW,2013-02-09 10:48:00,
2013-02-09 05:53:00,30.4,19.3,29.78,SW,225,4.0,6.3,63,0.00,,,0.00,WUHU216HW,2013-02-09 10:53:00,
2013-02-09 05:58:00,30.2,19.1,29.78,North,0,3.8,9.2,63,0.00,,,0.00,WUHU216HW,2013-02-09 10:58:00,
2013-02-09 06:03:00,30.2,19.1,29.79,NW,315,3.4,9.2,63,0.00,,,0.00,WUHU216HW,2013-02-09 11:03:00,
2013-02-09 06:08:00,30.2,19.1,29.80,NW,315,6.3,6.3,63,0.00,,,0.00,WUHU216HW,2013-02-09 11:08:00,
2013-02-09 06:13:00,30.1,18.9,29.80,SSE,158,4.7,6.5,63,0.00,,,0.00,WUHU216HW,2013-02-09 11:13:00,
2013-02-09 06:18:00,30.1,18.9,29.80,NW,315,4.0,6.5,63,0.00,,,0.00,WUHU216HW,2013-02-09 11:18:00,
2013-02-09 06:23:00,30.1,18.9,29.80,West,270,6.3,6.3,63,0.00,,,0.00,WUHU216HW,2013-02-09 11:23:00,
2013-02-09 06:28:00,29.9,18.7,29.80,WNW,293,2.0,8.3,63,0.00,,,0.00,WUHU216HW,2013-02-09 11:28:00,
2013-02-09 06:33:00,29.9,18.7,29.81,NNW,338,2.7,8.3,63,0.00,,,0.00,WUHU216HW,2013-02-09 11:33:00,
2013-02-09 06:38:00,29.9,19.1,29.82,WNW,293,5.6,6.7,64,0.00,,,0.00,WUHU216HW,2013-02-09 11:38:00,
2013-02-09 06:43:00,29.9,19.1,29.82,SW,225,6.9,6.9,64,0.00,,,0.00,WUHU216HW,2013-02-09 11:43:00,
2013-02-09 06:48:00,29.9,19.1,29.82,NW,315,4.0,8.5,64,0.00,,,0.00,WUHU216HW,2013-02-09 11:48:00,
2013-02-09 06:53:00,29.7,19.0,29.83,NW,315,8.3,8.5,64,0.00,,,0.00,WUHU216HW,2013-02-09 11:53:00,
2013-02-09 06:58:00,29.7,19.0,29.84,West,270,2.2,10.7,64,0.00,,,0.00,WUHU216HW,2013-02-09 11:58:00,
2013-02-09 07:03:00,29.7,19.0,29.84,NNW,338,1.6,10.7,64,0.00,,,0.00,WUHU216HW,2013-02-09 12:03:00,
2013-02-09 07:08:00,29.7,19.0,29.84,NW,315,6.3,9.2,64,0.00,,,0.00,WUHU216HW,2013-02-09 12:08:00,
2013-02-09 07:13:00,29.5,18.8,29.84,NNE,23,3.6,9.2,64,0.00,,,0.00,WUHU216HW,2013-02-09 12:13:00,
2013-02-09 07:18:00,29.7,19.0,29.84,West,270,2.7,6.3,64,0.00,,,0.00,WUHU216HW,2013-02-09 12:18:00,
2013-02-09 07:23:00,29.7,19.0,29.84,NNW,338,1.3,6.3,64,0.00,,,0.00,WUHU216HW,2013-02-09 12:23:00,
2013-02-09 07:29:00,29.5,18.8,29.83,NNW,338,2.5,5.4,64,0.00,,,0.00,WUHU216HW,2013-02-09 12:29:00,
2013-02-09 07:34:00,29.7,19.0,29.84,NNW,338,5.1,5.4,64,0.00,,,0.00,WUHU216HW,2013-02-09 12:34:00,
2013-02-09 07:39:00,29.7,19.0,29.84,SW,225,5.6,5.6,64,0.00,,,0.00,WUHU216HW,2013-02-09 12:39:00,
2013-02-09 07:44:00,29.7,18.6,29.84,NNW,338,2.7,5.6,63,0.00,,,0.00,WUHU216HW,2013-02-09 12:44:00,
2013-02-09 07:49:00,29.7,19.0,29.84,WNW,293,5.4,6.9,64,0.00,,,0.00,WUHU216HW,2013-02-09 12:49:00,
2013-02-09 07:54:00,29.9,18.7,29.84,NW,315,6.7,7.4,63,0.00,,,0.00,WUHU216HW,2013-02-09 12:54:00,
2013-02-09 07:59:00,29.9,18.7,29.85,WSW,248,5.4,7.4,63,0.00,,,0.00,WUHU216HW,2013-02-09 12:59:00,
2013-02-09 08:04:00,29.9,18.7,29.85,SW,225,4.9,7.6,63,0.00,,,0.00,WUHU216HW,2013-02-09 13:04:00,
2013-02-09 08:09:00,30.1,18.9,29.86,West,270,6.3,7.6,63,0.00,,,0.00,WUHU216HW,2013-02-09 13:09:00,
2013-02-09 08:14:00,30.1,18.9,29.86,SW,225,6.0,8.5,63,0.00,,,0.00,WUHU216HW,2013-02-09 13:14:00,
2013-02-09 08:19:00,30.1,18.9,29.87,NNW,338,3.4,8.5,63,0.00,,,0.00,WUHU216HW,2013-02-09 13:19:00,
2013-02-09 08:24:00,30.2,19.1,29.87,NNE,23,4.3,7.6,63,0.00,,,0.00,WUHU216HW,2013-02-09 13:24:00,
2013-02-09 08:29:00,30.4,18.9,29.87,WNW,293,1.8,5.8,62,0.00,,,0.00,WUHU216HW,2013-02-09 13:29:00,
2013-02-09 08:34:00,30.6,19.1,29.87,WSW,248,6.5,9.2,62,0.00,,,0.00,WUHU216HW,2013-02-09 13:34:00,
2013-02-09 08:39:00,30.6,19.1,29.87,North,0,4.5,9.2,62,0.00,,,0.00,WUHU216HW,2013-02-09 13:39:00,
2013-02-09 08:44:00,30.8,19.3,29.87,NNW,338,8.3,9.4,62,0.00,,,0.00,WUHU216HW,2013-02-09 13:44:00,
2013-02-09 08:49:00,30.8,19.3,29.88,SSW,203,3.8,9.4,62,0.00,,,0.00,WUHU216HW,2013-02-09 13:49:00,
2013-02-09 08:54:00,31.0,19.4,29.88,NNE,23,2.0,7.2,62,0.00,,,0.00,WUHU216HW,2013-02-09 13:54:00,
2013-02-09 08:59:00,31.1,19.3,29.89,NW,315,7.8,7.8,61,0.00,,,0.00,WUHU216HW,2013-02-09 13:59:00,
2013-02-09 09:04:00,31.3,19.4,29.89,West,270,5.1,7.8,61,0.00,,,0.00,WUHU216HW,2013-02-09 14:04:00,
2013-02-09 09:09:00,31.3,19.4,29.89,SSE,158,2.2,7.8,61,0.00,,,0.00,WUHU216HW,2013-02-09 14:09:00,
2013-02-09 09:14:00,31.3,19.4,29.90,SSW,203,4.3,8.1,61,0.00,,,0.00,WUHU216HW,2013-02-09 14:14:00,
2013-02-09 09:19:00,31.5,19.6,29.90,WSW,248,1.8,8.1,61,0.00,,,0.00,WUHU216HW,2013-02-09 14:19:00,
2013-02-09 09:24:00,31.7,19.4,29.91,NNW,338,1.8,5.4,60,0.00,,,0.00,WUHU216HW,2013-02-09 14:24:00,
2013-02-09 09:29:00,31.7,19.4,29.91,South,180,3.4,6.7,60,0.00,,,0.00,WUHU216HW,2013-02-09 14:29:00,
2013-02-09 09:34:00,31.7,19.4,29.91,WNW,293,6.7,6.7,60,0.00,,,0.00,WUHU216HW,2013-02-09 14:34:00,
2013-02-09 09:39:00,31.7,19.4,29.91,NW,315,3.4,8.5,60,0.00,,,0.00,WUHU216HW,2013-02-09 14:39:00,
2013-02-09 09:45:00,32.0,19.8,29.91,NW,315,4.0,8.5,60,0.00,,,0.00,WUHU216HW,2013-02-09 14:45:00,
2013-02-09 09:50:00,32.0,19.8,29.91,West,270,5.8,7.4,60,0.00,,,0.00,WUHU216HW,2013-02-09 14:50:00,
2013-02-09 09:55:00,32.2,20.0,29.91,ENE,68,4.7,7.4,60,0.00,,,0.00,WUHU216HW,2013-02-09 14:55:00,
2013-02-09 10:00:00,32.0,18.9,29.92,North,0,3.1,9.2,58,0.00,,,0.00,WUHU216HW,2013-02-09 15:00:00,
2013-02-09 10:05:00,32.2,19.5,29.92,SW,225,3.6,9.2,59,0.00,,,0.00,WUHU216HW,2013-02-09 15:05:00,
2013-02-09 10:10:00,32.4,19.7,29.92,NNW,338,6.3,7.6,59,0.00,,,0.00,WUHU216HW,2013-02-09 15:10:00,
2013-02-09 10:15:00,32.4,19.7,29.92,WNW,293,4.0,9.6,59,0.00,,,0.00,WUHU216HW,2013-02-09 15:15:00,
2013-02-09 10:20:00,32.4,19.7,29.92,NNE,23,4.0,9.6,59,0.00,,,0.00,WUHU216HW,2013-02-09 15:20:00,
2013-02-09 10:25:00,32.8,20.0,29.93,WNW,293,4.9,8.7,59,0.00,,,0.00,WUHU216HW,2013-02-09 15:25:00,
2013-02-09 10:30:00,32.8,19.6,29.93,SSW,203,5.4,8.7,58,0.00,,,0.00,WUHU216HW,2013-02-09 15:30:00,
2013-02-09 10:35:00,32.8,20.0,29.93,NE,45,2.5,8.3,59,0.00,,,0.00,WUHU216HW,2013-02-09 15:35:00,
2013-02-09 10:40:00,32.8,19.6,29.93,NW,315,4.7,4.7,58,0.00,,,0.00,WUHU216HW,2013-02-09 15:40:00,
2013-02-09 10:45:00,32.9,19.4,29.94,NNW,338,4.5,6.3,57,0.00,,,0.00,WUHU216HW,2013-02-09 15:45:00,
2013-02-09 10:50:00,32.9,19.4,29.94,NW,315,4.0,6.3,57,0.00,,,0.00,WUHU216HW,2013-02-09 15:50:00,
2013-02-09 10:55:00,33.3,19.6,29.94,WNW,293,7.6,9.8,57,0.00,,,0.00,WUHU216HW,2013-02-09 15:55:00,
2013-02-09 11:00:00,33.1,19.1,29.94,North,0,4.0,9.8,56,0.00,,,0.00,WUHU216HW,2013-02-09 16:00:00,
2013-02-09 11:05:00,33.5,19.4,29.94,NNW,338,6.3,8.7,56,0.00,,,0.00,WUHU216HW,2013-02-09 16:05:00,
2013-02-09 11:11:00,33.5,19.4,29.94,WNW,293,7.4,8.7,56,0.00,,,0.00,WUHU216HW,2013-02-09 16:11:00,
2013-02-09 11:16:00,34.0,19.9,29.94,SW,225,4.7,7.4,56,0.00,,,0.00,WUHU216HW,2013-02-09 16:16:00,
2013-02-09 11:21:00,34.4,20.3,29.95,SSW,203,5.1,6.5,56,0.00,,,0.00,WUHU216HW,2013-02-09 16:21:00,
2013-02-09 11:26:00,34.7,20.6,29.95,NW,315,6.5,8.1,56,0.00,,,0.00,WUHU216HW,2013-02-09 16:26:00,
2013-02-09 11:31:00,35.1,21.0,29.95,WNW,293,4.3,8.1,56,0.00,,,0.00,WUHU216HW,2013-02-09 16:31:00,
2013-02-09 11:36:00,35.3,20.7,29.95,NW,315,6.7,9.8,55,0.00,,,0.00,WUHU216HW,2013-02-09 16:36:00,
2013-02-09 11:41:00,35.6,20.6,29.95,WNW,293,2.0,9.8,54,0.00,,,0.00,WUHU216HW,2013-02-09 16:41:00,
2013-02-09 11:46:00,36.2,21.5,29.95,WNW,293,5.6,7.8,55,0.00,,,0.00,WUHU216HW,2013-02-09 16:46:00,
2013-02-09 11:51:00,36.5,21.9,29.95,West,270,4.9,7.2,55,0.00,,,0.00,WUHU216HW,2013-02-09 16:51:00,
2013-02-09 11:56:00,36.9,21.8,29.95,ESE,113,3.6,4.9,54,0.00,,,0.00,WUHU216HW,2013-02-09 16:56:00,
2013-02-09 12:01:00,37.3,22.1,29.95,WSW,248,6.3,6.9,54,0.00,,,0.00,WUHU216HW,2013-02-09 17:01:00,
2013-02-09 12:06:00,37.4,21.8,29.95,NW,315,4.0,6.9,53,0.00,,,0.00,WUHU216HW,2013-02-09 17:06:00,
2013-02-09 12:11:00,37.4,21.4,29.95,NNW,338,6.3,6.3,52,0.00,,,0.00,WUHU216HW,2013-02-09 17:11:00,
2013-02-09 12:16:00,37.4,21.4,29.95,WSW,248,3.1,6.3,52,0.00,,,0.00,WUHU216HW,2013-02-09 17:16:00,
2013-02-09 12:21:00,37.4,21.4,29.95,South,180,2.2,5.4,52,0.00,,,0.00,WUHU216HW,2013-02-09 17:21:00,
2013-02-09 12:26:00,37.8,21.2,29.95,WSW,248,5.4,7.4,51,0.00,,,0.00,WUHU216HW,2013-02-09 17:26:00,
2013-02-09 12:31:00,38.2,22.1,29.95,WNW,293,4.5,7.4,52,0.00,,,0.00,WUHU216HW,2013-02-09 17:31:00,
2013-02-09 12:36:00,38.0,21.4,29.95,WSW,248,4.9,6.0,51,0.00,,,0.00,WUHU216HW,2013-02-09 17:36:00,
2013-02-09 12:41:00,38.5,22.3,29.95,WNW,293,3.6,6.3,52,0.00,,,0.00,WUHU216HW,2013-02-09 17:41:00,
2013-02-09 12:46:00,38.7,22.1,29.95,North,0,4.0,6.3,51,0.00,,,0.00,WUHU216HW,2013-02-09 17:46:00,
2013-02-09 12:52:00,38.9,22.2,29.95,SSW,203,1.8,6.3,51,0.00,,,0.00,WUHU216HW,2013-02-09 17:52:00,
2013-02-09 12:57:00,39.6,23.3,29.95,NW,315,5.4,6.3,52,0.00,,,0.00,WUHU216HW,2013-02-09 17:57:00,
2013-02-09 13:02:00,39.4,22.3,29.95,NNW,338,8.1,8.1,50,0.00,,,0.00,WUHU216HW,2013-02-09 18:02:00,
2013-02-09 13:07:00,39.4,22.3,29.95,WNW,293,3.8,8.1,50,0.00,,,0.00,WUHU216HW,2013-02-09 18:07:00,
2013-02-09 13:12:00,39.8,22.6,29.95,North,0,2.0,6.3,50,0.00,,,0.00,WUHU216HW,2013-02-09 18:12:00,
2013-02-09 13:17:00,39.6,22.5,29.96,NW,315,3.8,5.8,50,0.00,,,0.00,WUHU216HW,2013-02-09 18:17:00,
2013-02-09 13:22:00,39.4,21.2,29.96,NNW,338,3.4,6.9,48,0.00,,,0.00,WUHU216HW,2013-02-09 18:22:00,
2013-02-09 13:27:00,39.4,21.8,29.95,NW,315,1.8,6.9,49,0.00,,,0.00,WUHU216HW,2013-02-09 18:27:00,
2013-02-09 13:32:00,40.0,22.8,29.95,WSW,248,2.0,9.8,50,0.00,,,0.00,WUHU216HW,2013-02-09 18:32:00,
2013-02-09 13:37:00,39.8,22.2,29.95,NNE,23,1.6,9.8,49,0.00,,,0.00,WUHU216HW,2013-02-09 18:37:00,
2013-02-09 13:42:00,39.6,22.0,29.95,NNW,338,4.3,8.9,49,0.00,,,0.00,WUHU216HW,2013-02-09 18:42:00,
2013-02-09 13:47:00,40.0,21.8,29.95,WSW,248,3.1,6.3,48,0.00,,,0.00,WUHU216HW,2013-02-09 18:47:00,
2013-02-09 13:52:00,40.1,22.4,29.95,NW,315,2.5,6.3,49,0.00,,,0.00,WUHU216HW,2013-02-09 18:52:00,
2013-02-09 13:57:00,40.3,22.6,29.95,NNE,23,1.6,6.3,49,0.00,,,0.00,WUHU216HW,2013-02-09 18:57:00,
2013-02-09 14:02:00,40.3,22.1,29.95,West,270,2.7,5.6,48,0.00,,,0.00,WUHU216HW,2013-02-09 19:02:00,
2013-02-09 14:07:00,40.3,22.1,29.95,SSW,203,5.6,5.6,48,0.00,,,0.00,WUHU216HW,2013-02-09 19:07:00,
2013-02-09 14:12:00,40.3,22.6,29.95,NNW,338,3.4,5.6,49,0.00,,,0.00,WUHU216HW,2013-02-09 19:12:00,
2013-02-09 14:18:00,40.3,22.1,29.95,SSW,203,1.8,6.0,48,0.00,,,0.00,WUHU216HW,2013-02-09 19:18:00,
2013-02-09 14:23:00,40.7,23.0,29.95,NW,315,2.9,6.0,49,0.00,,,0.00,WUHU216HW,2013-02-09 19:23:00,
2013-02-09 14:28:00,41.0,23.2,29.95,NNW,338,2.5,4.5,49,0.00,,,0.00,WUHU216HW,2013-02-09 19:28:00,
2013-02-09 14:33:00,41.4,23.6,29.96,North,0,2.5,3.1,49,0.00,,,0.00,WUHU216HW,2013-02-09 19:33:00,
2013-02-09 14:38:00,41.2,22.9,29.96,SW,225,1.6,4.0,48,0.00,,,0.00,WUHU216HW,2013-02-09 19:38:00,
2013-02-09 14:43:00,41.4,23.0,29.97,NW,315,4.5,4.5,48,0.00,,,0.00,WUHU216HW,2013-02-09 19:43:00,
2013-02-09 14:48:00,41.4,23.0,29.97,NW,315,2.5,4.5,48,0.00,,,0.00,WUHU216HW,2013-02-09 19:48:00,
2013-02-09 14:53:00,41.4,23.0,29.97,WNW,293,2.9,4.3,48,0.00,,,0.00,WUHU216HW,2013-02-09 19:53:00,
2013-02-09 14:58:00,41.8,23.4,29.97,WSW,248,4.0,5.6,48,0.00,,,0.00,WUHU216HW,2013-02-09 19:58:00,
2013-02-09 15:03:00,41.8,23.4,29.98,West,270,4.5,5.6,48,0.00,,,0.00,WUHU216HW,2013-02-09 20:03:00,
2013-02-09 15:08:00,41.4,23.0,29.98,North,0,4.0,4.5,48,0.00,,,0.00,WUHU216HW,2013-02-09 20:08:00,
2013-02-09 15:13:00,41.4,23.0,29.98,North,0,2.2,4.5,48,0.00,,,0.00,WUHU216HW,2013-02-09 20:13:00,
2013-02-09 15:18:00,41.4,23.0,29.98,NW,315,4.0,7.4,48,0.00,,,0.00,WUHU216HW,2013-02-09 20:18:00,
2013-02-09 15:23:00,41.0,22.7,29.98,NE,45,2.2,7.4,48,0.00,,,0.00,WUHU216HW,2013-02-09 20:23:00,
2013-02-09 15:29:00,40.7,21.9,29.99,NW,315,2.5,5.4,47,0.00,,,0.00,WUHU216HW,2013-02-09 20:29:00,
2013-02-09 15:34:00,40.7,21.3,29.99,West,270,4.3,5.6,46,0.00,,,0.00,WUHU216HW,2013-02-09 20:34:00,
2013-02-09 15:39:00,40.7,21.9,29.99,WSW,248,2.5,6.0,47,0.00,,,0.00,WUHU216HW,2013-02-09 20:39:00,
2013-02-09 15:44:00,40.7,21.9,29.99,West,270,2.5,6.3,47,0.00,,,0.00,WUHU216HW,2013-02-09 20:44:00,
2013-02-09 15:49:00,40.7,22.4,29.99,West,270,2.5,4.5,48,0.00,,,0.00,WUHU216HW,2013-02-09 20:49:00,
2013-02-09 15:54:00,40.9,22.1,29.99,North,0,2.2,4.5,47,0.00,,,0.00,WUHU216HW,2013-02-09 20:54:00,
2013-02-09 15:59:00,40.7,21.9,30.00,North,0,1.6,6.7,47,0.00,,,0.00,WUHU216HW,2013-02-09 20:59:00,
2013-02-09 16:04:00,40.5,22.2,29.99,SSW,203,2.5,5.8,48,0.00,,,0.00,WUHU216HW,2013-02-09 21:04:00,
2013-02-09 16:09:00,40.3,22.1,30.00,South,180,5.1,5.8,48,0.00,,,0.00,WUHU216HW,2013-02-09 21:09:00,
2013-02-09 16:14:00,40.1,21.9,30.00,South,180,6.3,6.3,48,0.00,,,0.00,WUHU216HW,2013-02-09 21:14:00,
2013-02-09 16:19:00,40.0,21.3,30.00,North,0,1.3,6.3,47,0.00,,,0.00,WUHU216HW,2013-02-09 21:19:00,
2013-02-09 16:24:00,40.0,21.8,30.00,NNE,23,3.4,6.3,48,0.00,,,0.00,WUHU216HW,2013-02-09 21:24:00,
2013-02-09 16:29:00,39.8,21.6,30.00,WNW,293,3.1,6.3,48,0.00,,,0.00,WUHU216HW,2013-02-09 21:29:00,
2013-02-09 16:34:00,39.6,21.4,30.00,NNW,338,2.7,5.4,48,0.00,,,0.00,WUHU216HW,2013-02-09 21:34:00,
2013-02-09 16:39:00,39.4,20.7,30.00,NW,315,1.8,5.4,47,0.00,,,0.00,WUHU216HW,2013-02-09 21:39:00,
2013-02-09 16:43:00,39.2,21.1,30.00,WNW,293,1.8,3.4,48,0.00,,,0.00,WUHU216HW,2013-02-09 21:43:00,
2013-02-09 16:45:00,39.2,21.1,30.00,WNW,293,1.8,3.4,48,0.00,,,0.00,WUHU216HW,2013-02-09 21:45:00,
2013-02-09 16:50:00,39.2,21.1,30.01,NW,315,1.1,3.8,48,0.00,,,0.00,WUHU216HW,2013-02-09 21:50:00,
2013-02-09 16:55:00,39.1,21.0,30.01,WNW,293,3.1,3.1,48,0.00,,,0.00,WUHU216HW,2013-02-09 21:55:00,
2013-02-09 17:00:00,38.9,20.8,30.01,NW,315,2.7,4.7,48,0.00,,,0.00,WUHU216HW,2013-02-09 22:00:00,
2013-02-09 17:05:00,38.7,20.6,30.01,NNW,338,0.9,4.7,48,0.00,,,0.00,WUHU216HW,2013-02-09 22:05:00,
2013-02-09 17:10:00,38.5,21.0,30.01,NW,315,0.0,2.5,49,0.00,,,0.00,WUHU216HW,2013-02-09 22:10:00,
2013-02-09 17:15:00,38.2,20.6,30.01,North,0,1.1,2.5,49,0.00,,,0.00,WUHU216HW,2013-02-09 22:15:00,
2013-02-09 17:21:00,38.0,20.0,30.02,NNW,338,3.1,3.6,48,0.00,,,0.00,WUHU216HW,2013-02-09 22:21:00,
2013-02-09 17:26:00,38.0,20.5,30.02,SSW,203,0.9,3.6,49,0.00,,,0.00,WUHU216HW,2013-02-09 22:26:00,
2013-02-09 17:31:00,37.8,20.4,30.03,NW,315,2.0,2.5,49,0.00,,,0.00,WUHU216HW,2013-02-09 22:31:00,
2013-02-09 17:36:00,37.6,20.2,30.03,SSW,203,0.4,2.9,49,0.00,,,0.00,WUHU216HW,2013-02-09 22:36:00,
2013-02-09 17:41:00,37.4,20.0,30.03,NW,315,2.0,2.9,49,0.00,,,0.00,WUHU216HW,2013-02-09 22:41:00,
2013-02-09 17:46:00,37.3,19.8,30.03,WNW,293,1.6,3.6,49,0.00,,,0.00,WUHU216HW,2013-02-09 22:46:00,
2013-02-09 17:51:00,37.1,19.7,30.03,NW,315,1.8,3.6,49,0.00,,,0.00,WUHU216HW,2013-02-09 22:51:00,
2013-02-09 17:56:00,37.1,19.7,30.03,NW,315,0.9,3.1,49,0.00,,,0.00,WUHU216HW,2013-02-09 22:56:00,
2013-02-09 18:01:00,36.7,19.9,30.03,WNW,293,0.9,3.1,50,0.00,,,0.00,WUHU216HW,2013-02-09 23:01:00,
2013-02-09 18:06:00,36.4,19.5,30.03,WSW,248,0.7,1.8,50,0.00,,,0.00,WUHU216HW,2013-02-09 23:06:00,
2013-02-09 18:11:00,36.0,19.6,30.03,West,270,0.0,1.8,51,0.00,,,0.00,WUHU216HW,2013-02-09 23:11:00,
2013-02-09 18:16:00,35.5,19.2,30.04,WNW,293,0.0,1.6,51,0.00,,,0.00,WUHU216HW,2013-02-09 23:16:00,
2013-02-09 18:21:00,35.1,19.3,30.04,West,270,0.2,1.3,52,0.00,,,0.00,WUHU216HW,2013-02-09 23:21:00,
2013-02-09 18:26:00,34.9,19.1,30.04,WNW,293,0.2,1.3,52,0.00,,,0.00,WUHU216HW,2013-02-09 23:26:00,
2013-02-09 18:31:00,34.6,18.7,30.05,West,270,0.4,1.1,52,0.00,,,0.00,WUHU216HW,2013-02-09 23:31:00,
2013-02-09 18:37:00,34.2,18.7,30.05,West,270,0.0,1.3,53,0.00,,,0.00,WUHU216HW,2013-02-09 23:37:00,
2013-02-09 18:42:00,34.0,18.5,30.05,SW,225,0.0,1.3,53,0.00,,,0.00,WUHU216HW,2013-02-09 23:42:00,
2013-02-09 18:47:00,34.0,18.5,30.06,WNW,293,0.7,1.1,53,0.00,,,0.00,WUHU216HW,2013-02-09 23:47:00,
2013-02-09 18:52:00,33.8,18.4,30.05,SSW,203,0.7,1.8,53,0.00,,,0.00,WUHU216HW,2013-02-09 23:52:00,
2013-02-09 18:57:00,33.8,18.8,30.06,West,270,0.0,2.7,54,0.00,,,0.00,WUHU216HW,2013-02-09 23:57:00,
2013-02-09 19:02:00,33.8,18.8,30.06,WNW,293,0.7,2.7,54,0.00,,,0.00,WUHU216HW,2013-02-10 00:02:00,
2013-02-09 19:07:00,33.8,18.8,30.06,West,270,0.0,2.5,54,0.00,,,0.00,WUHU216HW,2013-02-10 00:07:00,
2013-02-09 19:12:00,33.8,18.8,30.06,WSW,248,0.9,2.5,54,0.00,,,0.00,WUHU216HW,2013-02-10 00:12:00,
2013-02-09 19:17:00,33.7,19.1,30.06,WSW,248,1.6,1.8,55,0.00,,,0.00,WUHU216HW,2013-02-10 00:17:00,
2013-02-09 19:22:00,33.8,19.3,30.06,WNW,293,0.2,2.5,55,0.00,,,0.00,WUHU216HW,2013-02-10 00:22:00,
2013-02-09 19:27:00,34.0,19.4,30.06,NW,315,1.1,2.5,55,0.00,,,0.00,WUHU216HW,2013-02-10 00:27:00,
2013-02-09 19:32:00,34.0,19.4,30.06,NNE,23,0.7,1.6,55,0.00,,,0.00,WUHU216HW,2013-02-10 00:32:00,
2013-02-09 19:37:00,34.0,19.4,30.06,NNE,23,0.9,2.0,55,0.00,,,0.00,WUHU216HW,2013-02-10 00:37:00,
2013-02-09 19:42:00,34.0,19.4,30.06,WNW,293,1.6,2.7,55,0.00,,,0.00,WUHU216HW,2013-02-10 00:42:00,
2013-02-09 19:47:00,34.0,19.4,30.06,WNW,293,1.6,2.7,55,0.00,,,0.00,WUHU216HW,2013-02-10 00:47:00,
2013-02-09 19:52:00,33.8,19.3,30.07,NW,315,2.2,2.2,55,0.00,,,0.00,WUHU216HW,2013-02-10 00:52:00,
2013-02-09 19:58:00,33.7,19.1,30.07,WNW,293,1.6,2.2,55,0.00,,,0.00,WUHU216HW,2013-02-10 00:58:00,
2013-02-09 20:03:00,33.7,19.1,30.08,East,90,0.9,2.2,55,0.00,,,0.00,WUHU216HW,2013-02-10 01:03:00,
2013-02-09 20:08:00,33.8,19.3,30.08,West,270,2.2,2.2,55,0.00,,,0.00,WUHU216HW,2013-02-10 01:08:00,
2013-02-09 20:13:00,33.8,19.3,30.08,WNW,293,1.1,2.2,55,0.00,,,0.00,WUHU216HW,2013-02-10 01:13:00,
2013-02-09 20:18:00,33.7,19.1,30.08,West,270,1.8,1.8,55,0.00,,,0.00,WUHU216HW,2013-02-10 01:18:00,
2013-02-09 20:23:00,33.5,18.9,30.08,NW,315,0.9,2.0,55,0.00,,,0.00,WUHU216HW,2013-02-10 01:23:00,
2013-02-09 20:28:00,33.5,18.9,30.08,NW,315,0.4,2.0,55,0.00,,,0.00,WUHU216HW,2013-02-10 01:28:00,
2013-02-09 20:33:00,33.5,18.9,30.08,NW,315,0.2,2.7,55,0.00,,,0.00,WUHU216HW,2013-02-10 01:33:00,
2013-02-09 20:38:00,33.5,18.9,30.08,West,270,1.6,2.7,55,0.00,,,0.00,WUHU216HW,2013-02-10 01:38:00,
2013-02-09 20:43:00,33.5,18.9,30.08,NW,315,0.4,2.5,55,0.00,,,0.00,WUHU216HW,2013-02-10 01:43:00,
2013-02-09 20:48:00,33.3,18.8,30.08,NW,315,1.1,1.3,55,0.00,,,0.00,WUHU216HW,2013-02-10 01:48:00,
2013-02-09 20:53:00,33.1,18.6,30.08,WSW,248,0.4,2.2,55,0.00,,,0.00,WUHU216HW,2013-02-10 01:53:00,
2013-02-09 20:58:00,32.9,18.5,30.08,West,270,1.8,2.2,55,0.00,,,0.00,WUHU216HW,2013-02-10 01:58:00,
2013-02-09 21:03:00,32.9,18.5,30.08,SSW,203,0.4,2.5,55,0.00,,,0.00,WUHU216HW,2013-02-10 02:03:00,
2013-02-09 21:09:00,32.8,18.3,30.08,WNW,293,1.1,2.5,55,0.00,,,0.00,WUHU216HW,2013-02-10 02:09:00,
2013-02-09 21:14:00,32.6,18.5,30.08,NW,315,1.8,1.8,56,0.00,,,0.00,WUHU216HW,2013-02-10 02:14:00,
2013-02-09 21:19:00,32.4,18.4,30.08,WNW,293,1.1,1.8,56,0.00,,,0.00,WUHU216HW,2013-02-10 02:19:00,
2013-02-09 21:24:00,32.4,18.4,30.08,NW,315,1.3,1.8,56,0.00,,,0.00,WUHU216HW,2013-02-10 02:24:00,
2013-02-09 21:29:00,32.4,18.4,30.09,West,270,0.9,2.5,56,0.00,,,0.00,WUHU216HW,2013-02-10 02:29:00,
2013-02-09 21:34:00,32.4,18.4,30.09,WNW,293,0.7,2.5,56,0.00,,,0.00,WUHU216HW,2013-02-10 02:34:00,
2013-02-09 21:39:00,32.0,18.1,30.09,NW,315,1.8,1.8,56,0.00,,,0.00,WUHU216HW,2013-02-10 02:39:00,
2013-02-09 21:44:00,31.9,17.5,30.10,West,270,2.0,2.5,55,0.00,,,0.00,WUHU216HW,2013-02-10 02:44:00,
2013-02-09 21:49:00,31.7,17.7,30.10,WNW,293,0.4,2.5,56,0.00,,,0.00,WUHU216HW,2013-02-10 02:49:00,
2013-02-09 21:54:00,31.7,17.7,30.10,West,270,1.3,2.0,56,0.00,,,0.00,WUHU216HW,2013-02-10 02:54:00,
2013-02-09 21:59:00,31.5,17.6,30.10,WNW,293,1.8,1.8,56,0.00,,,0.00,WUHU216HW,2013-02-10 02:59:00,
2013-02-09 22:04:00,31.3,17.4,30.11,NNW,338,0.2,1.8,56,0.00,,,0.00,WUHU216HW,2013-02-10 03:04:00,
2013-02-09 22:09:00,31.3,17.4,30.10,NW,315,0.4,1.6,56,0.00,,,0.00,WUHU216HW,2013-02-10 03:09:00,
2013-02-09 22:14:00,31.0,17.0,30.11,SW,225,0.4,1.6,56,0.00,,,0.00,WUHU216HW,2013-02-10 03:14:00,
2013-02-09 22:19:00,31.1,17.2,30.11,WNW,293,1.1,1.8,56,0.00,,,0.00,WUHU216HW,2013-02-10 03:19:00,
2013-02-09 22:24:00,31.1,17.7,30.10,WNW,293,0.4,1.8,57,0.00,,,0.00,WUHU216HW,2013-02-10 03:24:00,
2013-02-09 22:30:00,31.1,17.7,30.10,NW,315,1.3,1.8,57,0.00,,,0.00,WUHU216HW,2013-02-10 03:30:00,
2013-02-09 22:35:00,31.0,17.5,30.10,WNW,293,2.2,2.5,57,0.00,,,0.00,WUHU216HW,2013-02-10 03:35:00,
2013-02-09 22:40:00,31.3,17.8,30.10,NW,315,0.0,2.5,57,0.00,,,0.00,WUHU216HW,2013-02-10 03:40:00,
2013-02-09 22:45:00,31.1,17.7,30.11,NW,315,1.3,1.3,57,0.00,,,0.00,WUHU216HW,2013-02-10 03:45:00,
2013-02-09 22:50:00,31.0,17.5,30.10,North,0,2.7,4.0,57,0.00,,,0.00,WUHU216HW,2013-02-10 03:50:00,
2013-02-09 22:55:00,31.1,17.7,30.10,NW,315,2.7,4.0,57,0.00,,,0.00,WUHU216HW,2013-02-10 03:55:00,
2013-02-09 23:00:00,31.3,17.8,30.11,NW,315,0.7,2.7,57,0.00,,,0.00,WUHU216HW,2013-02-10 04:00:00,
2013-02-09 23:05:00,31.3,17.8,30.11,WNW,293,2.2,2.2,57,0.00,,,0.00,WUHU216HW,2013-02-10 04:05:00,
2013-02-09 23:10:00,31.5,18.0,30.11,NNE,23,0.9,2.2,57,0.00,,,0.00,WUHU216HW,2013-02-10 04:10:00,
2013-02-09 23:15:00,31.5,18.0,30.11,NW,315,0.7,1.8,57,0.00,,,0.00,WUHU216HW,2013-02-10 04:15:00,
2013-02-09 23:20:00,31.5,18.0,30.11,NW,315,0.2,1.8,57,0.00,,,0.00,WUHU216HW,2013-02-10 04:20:00,
2013-02-09 23:25:00,31.3,17.8,30.11,West,270,3.8,3.8,57,0.00,,,0.00,WUHU216HW,2013-02-10 04:25:00,
2013-02-09 23:31:00,31.1,17.7,30.11,WNW,293,1.1,3.8,57,0.00,,,0.00,WUHU216HW,2013-02-10 04:31:00,
2013-02-09 23:36:00,31.1,18.1,30.11,WNW,293,0.2,2.5,58,0.00,,,0.00,WUHU216HW,2013-02-10 04:36:00,
2013-02-09 23:41:00,31.0,17.9,30.12,NW,315,0.4,1.1,58,0.00,,,0.00,WUHU216HW,2013-02-10 04:41:00,
2013-02-09 23:46:00,30.6,17.6,30.12,North,0,0.0,1.1,58,0.00,,,0.00,WUHU216HW,2013-02-10 04:46:00,
2013-02-09 23:51:00,30.4,17.4,30.12,WNW,293,1.3,1.3,58,0.00,,,0.00,WUHU216HW,2013-02-10 04:51:00,
2013-02-09 23:56:00,30.1,17.5,30.12,NW,315,0.4,1.3,59,0.00,,,0.00,WUHU216HW,2013-02-10 04:56:00,